Wind_Speed
10 9 8 7 7 6 6 5 5 5 6 6 6 6 6 7 7 8 8 9 10 10 11 11 11 11 12 12 12 10 10 11 11 11 11 12 12 12 12 13 13 14
10 9 8 8 7 7 7 7 7 7 7 7 7 6 7 8 8 9 9 10 11 12 12 13 13 14 14 14 13 11 10 11 12 12 13 13 12 12 13 13 13 13
10 10 9 9 8 8 8 8 8 8 8 8 8 8 8 9 10 10 11 11 11 12 13 14 15 14 14 14 13 11 11 11 12 14 14 13 13 13 14 13 13 14
10 10 10 10 9 9 8 8 9 9 9 10 10 10 10 10 11 11 11 11 12 13 13 14 15 15 14 14 13 12 11 11 12 13 13 13 13 13 14 14 14 15
11 11 10 10 10 9 9 10 10 10 10 10 10 11 11 11 11 11 11 11 12 13 13 14 15 15 14 14 13 13 12 11 12 13 13 13 13 14 14 14 15 16
12 11 11 11 11 10 11 11 11 10 10 10 11 11 11 11 11 11 11 12 12 13 13 14 15 15 15 14 13 13 13 12 12 13 13 13 14 14 14 15 15 16
12 12 12 12 12 12 12 12 12 11 11 11 11 11 11 11 11 11 11 12 13 13 14 15 15 15 15 14 14 14 13 12 13 14 14 14 14 15 15 15 16 17
13 13 13 12 13 13 14 13 13 12 11 11 12 12 12 12 12 12 12 12 13 13 14 15 15 15 15 15 15 15 14 13 14 14 15 15 15 16 17 17 17 18
14 14 14 13 14 14 13 13 12 12 11 11 12 12 12 12 12 12 12 12 13 14 14 15 15 15 15 15 15 15 14 14 14 14 15 15 16 17 18 18 18 18
13 13 13 14 14 13 13 12 12 12 12 12 12 12 12 12 12 12 12 12 13 14 15 15 16 16 16 16 15 15 14 14 14 14 14 15 16 17 18 18 18 18
13 13 13 14 13 13 12 12 12 12 12 12 12 12 12 11 11 12 12 13 13 14 15 16 17 17 18 17 17 15 14 13 14 14 15 15 16 17 17 18 18 18
13 13 13 13 12 12 12 12 12 11 11 11 11 11 11 11 12 12 13 13 13 14 15 16 17 18 19 18 17 15 14 13 13 14 15 15 16 17 17 17 18 18
12 12 12 12 12 11 11 11 11 11 11 11 11 11 11 12 12 13 13 13 13 14 15 16 17 19 21 21 19 16 14 13 13 14 14 15 16 17 17 17 18 17
12 11 11 11 12 11 11 11 11 11 11 11 11 11 12 12 12 12 12 13 13 14 15 17 18 21 23 23 21 17 14 12 12 13 14 15 16 18 17 18 18 17
12 11 12 12 12 12 11 11 11 11 11 12 12 12 12 12 12 12 12 13 13 13 15 17 19 23 25 25 22 17 13 12 13 14 15 15 17 18 18 17 18 18
12 12 12 12 12 12 11 11 11 11 11 12 12 12 12 12 12 12 12 12 13 13 14 16 20 25 26 24 22 17 12 12 13 13 15 15 17 18 18 18 19 19
13 13 13 13 12 12 11 11 11 11 12 12 13 13 12 12 12 12 12 12 12 13 14 15 20 25 26 25 22 17 12 11 12 13 14 15 18 19 19 20 21 21
13 13 13 13 13 12 12 11 12 12 13 12 13 13 12 13 12 12 12 11 11 12 14 16 21 25 26 26 23 18 16 12 12 14 14 16 18 19 19 21 21 22
13 13 13 13 13 12 12 12 13 13 12 12 12 12 12 13 13 12 12 11 10 11 13 16 23 25 26 27 24 19 18 15 13 14 15 16 19 19 19 21 21 23
14 14 13 13 13 13 13 13 13 13 12 11 12 12 12 12 12 12 12 11 10 11 11 15 23 26 26 28 25 20 17 16 14 14 15 16 18 19 19 20 21 23
14 14 14 14 14 14 14 14 13 12 12 12 12 12 12 12 11 11 11 11 11 11 11 14 22 26 26 28 27 20 16 15 13 14 16 17 18 19 19 19 21 22
14 14 14 14 14 14 14 14 13 12 12 12 12 12 11 11 11 11 11 12 11 11 11 12 19 26 26 27 28 22 17 15 13 13 16 17 18 20 19 19 21 22
14 14 14 14 14 14 13 13 13 12 12 12 12 12 11 11 11 10 11 12 12 13 12 12 17 24 26 26 28 25 18 16 15 14 15 17 19 20 20 20 21 20
14 14 14 14 14 13 13 12 12 12 12 12 12 12 11 11 11 11 11 11 12 14 14 13 15 21 25 26 28 27 21 16 16 15 16 18 20 20 20 21 21 20
14 14 14 13 13 12 12 12 12 12 12 12 12 12 12 11 11 11 11 11 11 12 14 15 15 18 24 26 27 28 24 18 16 16 16 19 20 20 20 21 22 21
13 13 13 13 12 11 11 11 12 12 11 12 12 12 12 11 11 11 11 11 10 10 11 14 15 16 21 25 27 28 26 21 17 16 17 19 20 20 20 21 22 22
Wind_Direction
79 79 78 76 71 66 62 63 67 67 67 67 65 57 46 38 33 34 33 28 27 24 20 18 16 14 11 10 11 10 7 1 355 348 344 341 335 330 326 321 319 315
75 77 78 78 75 70 68 68 71 70 68 67 67 63 54 46 43 43 43 40 37 33 29 26 23 22 20 16 16 16 12 6 2 355 352 350 345 342 337 333 329 324
72 75 77 78 78 74 71 71 71 70 68 66 65 63 60 55 52 52 50 46 40 33 30 28 25 22 20 16 15 14 10 7 3 357 353 351 347 344 340 338 335 332
69 72 74 76 77 75 71 71 71 69 68 67 65 64 64 60 57 55 50 43 38 34 30 27 24 22 19 17 15 11 7 7 3 358 355 351 347 343 340 338 335 334
71 72 74 75 75 74 71 71 70 69 69 68 65 64 63 60 57 54 48 41 38 35 32 28 25 22 19 16 15 11 7 6 2 359 356 352 349 346 342 339 337 336
75 75 75 76 74 73 72 71 70 70 70 68 66 64 63 61 58 54 49 44 41 38 34 31 27 23 20 16 13 10 6 3 360 358 357 355 351 349 345 341 338 338
79 78 78 78 76 74 73 72 70 71 71 70 69 67 65 63 60 56 52 47 45 42 37 33 28 24 20 16 13 8 5 2 359 357 358 356 353 351 349 345 341 339
81 81 81 81 79 76 75 74 73 73 74 74 72 68 66 64 61 58 54 50 47 43 38 33 28 23 18 14 10 6 4 2 360 359 358 356 354 353 350 348 343 340
83 82 82 81 80 77 75 75 74 73 73 73 73 70 66 64 62 59 56 52 48 44 39 33 28 22 17 13 9 4 2 1 0 360 359 356 355 353 350 347 344 341
85 83 82 81 80 78 76 75 74 73 72 71 71 70 67 64 61 59 55 53 49 44 39 33 28 22 17 12 8 4 2 1 1 0 359 357 355 352 348 346 344 342
86 85 84 84 82 79 77 75 74 73 71 70 69 67 65 63 59 57 54 52 49 44 39 34 28 22 17 12 7 3 2 1 2 2 0 359 357 352 349 346 343 341
88 89 88 86 82 79 77 74 73 72 69 67 65 64 64 61 58 56 53 52 50 44 39 34 28 22 16 11 5 2 2 2 3 3 2 1 358 354 351 348 344 342
93 91 89 85 81 79 77 74 72 70 68 66 64 63 63 59 58 57 54 53 51 46 40 34 28 22 16 11 5 360 359 0 2 4 3 2 359 356 353 350 346 344
96 91 88 84 82 80 77 75 72 69 67 66 64 63 61 59 58 57 56 55 52 47 42 35 29 22 17 13 8 1 358 358 1 4 3 2 0 358 355 352 350 347
100 95 91 87 84 81 77 75 72 70 68 66 64 63 62 60 59 58 57 55 53 49 42 35 28 22 19 16 11 5 360 359 3 5 3 2 2 359 357 355 353 349
103 99 95 90 86 82 80 77 74 72 69 66 65 63 62 61 59 58 56 54 53 48 42 36 26 21 21 20 18 15 7 1 4 6 4 4 4 1 359 357 354 350
104 100 96 92 88 83 81 78 75 73 70 68 66 63 62 61 59 58 55 53 53 48 42 35 23 19 21 22 23 29 28 13 4 3 5 5 5 3 359 356 353 351
103 100 96 93 89 84 81 78 76 74 70 68 66 63 63 61 58 57 54 52 53 48 44 34 21 19 22 23 25 34 40 31 10 5 8 7 5 4 360 357 354 350
104 100 96 93 89 85 82 78 74 71 69 67 66 65 64 61 58 57 52 50 51 47 45 33 20 18 21 23 24 32 40 37 17 8 11 9 6 4 359 357 355 351
106 102 99 95 90 85 80 75 71 69 67 66 66 64 63 61 58 56 51 48 46 45 46 33 19 17 21 22 23 30 36 33 19 11 12 10 7 5 1 358 356 353
106 104 101 96 89 83 77 73 71 69 66 65 64 62 61 59 57 55 51 48 44 41 46 35 18 15 20 21 22 29 35 27 16 13 14 12 8 6 3 1 359 356
107 105 100 95 89 83 78 73 71 69 67 65 64 62 62 59 57 56 52 49 46 39 41 39 20 14 20 23 22 28 31 19 12 14 14 12 10 7 5 3 1 358
109 105 100 95 89 84 80 75 71 69 67 64 63 62 61 59 58 57 53 51 49 40 37 39 24 16 20 25 24 27 27 14 10 15 12 10 10 7 5 4 2 1
108 104 100 96 91 86 81 76 72 69 66 63 63 63 61 61 60 58 56 54 52 45 39 38 29 21 25 29 26 28 29 17 10 14 12 10 10 7 5 4 2 3
108 104 101 97 93 89 83 77 72 69 67 65 64 63 62 62 60 57 57 54 52 50 44 39 34 27 31 34 30 30 31 22 12 13 13 11 9 6 5 4 2 2
110 106 103 99 95 91 84 79 74 70 69 67 64 63 61 60 57 55 56 53 48 49 45 40 37 32 32 35 33 32 32 25 15 13 11 10 9 7 6 4 2 2
Height
848 848 848 849 850 851 851 852 852 851 851 850 850 850 849 849 848 847 846 846 845 844 843 842 841 840 839 837 836 836 836 835 834 833 832 831 830 828 827 826 824 823
849 849 849 850 851 852 852 853 852 852 851 851 850 850 849 849 848 847 847 846 845 844 843 842 841 840 839 838 837 836 836 835 834 833 832 831 830 828 827 825 824 823
850 850 850 851 852 853 853 853 853 853 852 852 851 850 850 849 849 848 847 847 846 845 843 842 841 840 839 838 837 837 836 835 834 833 832 831 830 829 827 826 825 823
851 851 852 852 853 854 854 854 854 854 853 852 852 851 850 850 849 849 848 847 846 845 844 843 842 841 840 839 838 837 836 836 835 834 833 832 831 829 828 827 825 824
853 853 853 854 854 855 855 855 854 854 854 854 853 852 851 851 850 850 849 848 847 846 845 844 843 841 840 839 839 838 837 836 835 834 833 832 831 830 828 827 825 824
854 854 854 855 855 855 855 855 855 855 855 854 854 853 852 851 851 850 850 849 848 847 846 845 844 842 841 840 839 838 837 836 835 834 833 832 831 830 829 827 826 824
855 855 856 856 856 857 857 857 857 856 856 855 854 854 853 852 852 851 851 850 849 849 847 846 845 844 842 841 840 839 838 837 836 834 834 833 832 830 829 827 826 824
856 856 857 857 857 858 858 858 858 858 857 856 855 854 853 853 853 852 852 851 850 850 849 847 846 845 844 842 841 840 839 837 836 835 834 833 832 830 829 827 826 824
857 857 858 858 858 859 859 859 859 858 858 857 856 856 855 854 854 853 853 852 851 851 850 849 848 846 845 844 842 841 839 838 837 835 835 833 832 831 829 828 826 824
859 859 859 859 859 860 860 860 860 859 859 858 857 857 856 855 855 854 854 853 852 852 851 850 849 847 846 844 843 842 840 839 837 836 835 834 833 831 830 828 826 824
860 860 860 860 860 861 861 861 860 860 859 859 858 858 857 856 856 855 855 854 853 853 852 851 850 848 847 845 844 843 841 840 838 837 836 834 833 832 830 828 827 824
861 861 862 862 861 861 861 861 861 861 860 859 859 858 858 857 857 856 855 855 855 854 853 852 851 850 848 846 845 843 841 840 839 837 836 835 834 832 830 829 827 825
862 863 863 862 862 862 862 862 861 861 861 860 860 859 858 858 857 857 856 856 856 855 855 854 852 851 849 846 845 843 841 840 839 838 837 835 834 832 831 829 827 826
863 864 863 863 863 863 863 862 862 862 861 861 860 859 859 859 858 858 858 857 857 857 856 855 853 852 849 847 845 843 841 840 839 838 837 835 834 833 831 830 828 826
864 864 864 864 864 864 864 863 863 863 862 861 861 860 860 860 859 859 859 859 859 858 857 856 855 853 850 848 845 842 842 841 840 839 837 836 834 833 831 830 828 826
865 865 865 865 865 865 865 864 864 864 863 862 862 861 861 861 860 860 860 860 860 859 859 858 856 854 852 849 846 843 842 842 841 839 838 836 834 833 832 830 828 827
865 865 865 865 865 866 865 865 865 864 864 863 863 862 862 861 861 861 861 861 861 860 860 859 857 855 853 850 847 844 842 841 841 840 838 837 835 834 832 830 829 827
866 866 866 866 866 866 866 866 866 865 865 864 864 864 863 862 862 862 862 862 862 861 861 860 858 856 853 850 848 845 843 841 842 841 839 838 837 835 833 831 829 827
866 867 867 867 867 867 867 867 866 866 866 865 865 865 864 864 863 863 863 863 863 862 862 861 859 856 853 851 848 846 844 842 842 842 840 839 837 836 834 832 830 827
867 867 868 868 867 867 867 867 867 867 867 866 866 865 865 864 865 864 864 864 863 863 863 862 860 857 854 851 849 847 844 843 843 843 841 840 838 837 835 833 831 829
867 868 869 868 868 868 868 868 868 868 868 867 866 866 865 865 866 865 865 865 864 864 863 862 861 858 855 852 850 847 845 844 844 843 841 840 839 837 835 833 832 830
868 869 869 869 869 869 869 869 869 869 869 868 867 867 867 867 867 866 866 866 865 864 864 863 862 859 856 853 851 848 845 845 845 843 842 841 839 837 836 834 832 830
869 869 869 869 870 870 870 870 870 870 869 869 868 868 868 868 868 867 867 867 866 865 864 864 863 860 857 854 852 848 846 845 845 844 842 841 839 837 836 834 832 831
869 869 870 870 871 871 871 871 871 870 870 870 869 869 869 869 869 868 868 867 867 866 865 864 864 862 859 856 853 850 847 847 846 845 843 841 839 838 836 834 832 830
870 870 871 871 872 872 872 872 872 871 871 871 871 870 870 870 869 869 868 868 867 867 866 865 864 863 860 857 855 852 849 848 847 846 844 842 840 838 836 834 832 830
871 871 872 872 873 873 873 873 872 872 872 872 872 872 871 871 870 869 869 869 868 868 867 866 865 864 862 859 857 854 851 850 849 848 846 843 840 839 837 835 833 830